Weather in Yakshur

Russia / Udmurt Republic     57°12′46″N   53°09′37″E
temp.,
°C
wind,
m/s
gust,
m/s
humid.,
%
clouds,
%
prec.,
mm/h
press.,
hPa
HPBL,
m
9 march, tue
tue901:00−12wsw239797 0.0 100046
04:00−14wnw229799 0.1 100222
07:00−16nw229870 0.0 100420
10:00−11nw239170 0.0 1006263
13:00−8w238299 0.1 1008718
16:00−8nw1285100 0.2 1009483
19:00−11nne2296100 0.2 101032
22:00−12ene3696100 0.3 1011202
10 march, wed
wed1001:00−15ne4995100 0.3 1011318
04:00−18ne5994100 0.4 1011320
07:00−22nne51093100 0.0 1012296
10:00−21nne5118797 0.0 1013339
13:00−17n6117971 0.0 1013591
16:00−16n6107968 0.0 1014739
19:00−19nnw5138777 0.0 1015539
22:00−21n5139071 0.0 1016442
11 march, thu
thu1101:00−23nnw499550 0.0 1016229
04:00−25nw379734 0.0 1017127
07:00−25wnw389727 0.0 1017191
10:00−20wnw479563 0.0 1016316
13:00−14wnw4889100 0.0 1016520
16:00−10wnw51089100 0.1 1015910
19:00−9nw51191100 0.6 1016881
22:00−9nw51290100 0.6 1017779
12 march, fri
fri1201:00−13nw5128796 0.0 1018449
04:00−14wnw4129296 0.1 1020418
07:00−15wnw41191100 0.0 1022426
10:00−13wnw51085100 0.0 1023425
13:00−9wnw61078100 0.0 1023737
16:00−8w6118191 0.0 1024787
19:00−10w51288100 0.0 1025609
22:00−13w5139099 0.0 1027473
13 march, sat
sat1301:00−13wnw41290100 0.0 1028390
04:00−16w4109372 0.0 1029267
07:00−18w399353 0.0 1031215
10:00−13w488670 0.0 1031285
13:00−7wsw478090 0.0 1031499
16:00−6sw478392 0.0 1030613
19:00−11sw389361 0.0 1029170
22:00−14sw3119541 0.0 1029266